Tracking 22779 objects as of 12-Apr-2021
HD Live streaming from Space Station
objects crossing your sky now

STARLINK-1738

Track STARLINK-1738 now!
10-day predictions
STARLINK-1738 is classified as:


NORAD ID: 46336
Int'l Code: 2020-062M
Perigee: 554.0 km
Apogee: 554.7 km
Inclination: 53.1 °
Period: 95.6 minutes
Semi major axis: 6925 km
RCS: Unknown
Launch date: September 3, 2020
Source: United States (US)
Launch site: AIR FORCE EASTERN TEST RANGE (AFETR)
aabbcc
Your satellite tracking list
Your tracking list is empty




NASA's NSSDC Master Catalog

Two Line Element Set (TLE):
1 46336U 20062M   21101.86316568  .00000468  00000-0  50291-4 0  9999
2 46336  53.0559 124.9349 0000508  88.2415 271.8632 15.06386176 34362
Source of the keplerian elements: AFSPC